THY1645 VNKT-LTFM

Flight info

Callsign THY1645
Flight time N/A
Altitude 39000
Route DARKE1F DARKE DCT NARAN L626 HW W85 SP M890 SULOM L509 TAPIS P173 DAVET B475 DOLOS B449 DUKAN N449 INDUR UB374 ERZ UL615 DAMAT UA4 ERSEN
Aircraft A333/H-SDE3GHIJ2J3J5M1RVWXY/LB2D1

Departure

Time 2026-04-30 05:08
Airport Tribhuvan International Airport (VNKT)

Arrival

Time N/A
Airport İstanbul Airport (LTFM)
Time Latitude Longitude Altitude Speed Heading
2026-04-30 04:46 27.69933 85.35823 4401 ft 0 kts 292°
2026-04-30 04:54 27.69930 85.35835 4401 ft 3 kts 283°
2026-04-30 04:54 27.69924 85.35856 4401 ft 3 kts 278°
2026-04-30 04:55 27.69923 85.35878 4401 ft 3 kts 246°
2026-04-30 04:55 27.69934 85.35895 4401 ft 2 kts 207°
2026-04-30 04:55 27.69936 85.35896 4401 ft 0 kts 207°
2026-04-30 04:55 27.69943 85.35900 4401 ft 3 kts 210°
2026-04-30 04:56 27.69958 85.35912 4401 ft 3 kts 217°
2026-04-30 04:56 27.69962 85.35916 4401 ft 0 kts 209°
2026-04-30 04:59 27.69961 85.35915 4401 ft 1 kts 209°
2026-04-30 04:59 27.69955 85.35911 4401 ft 1 kts 209°
2026-04-30 04:59 27.69944 85.35905 4401 ft 2 kts 209°
2026-04-30 05:00 27.69928 85.35895 4401 ft 3 kts 208°
2026-04-30 05:00 27.69910 85.35889 4401 ft 3 kts 194°
2026-04-30 05:00 27.69882 85.35886 4401 ft 5 kts 186°
2026-04-30 05:00 27.69843 85.35877 4401 ft 6 kts 196°
2026-04-30 05:01 27.69799 85.35858 4401 ft 8 kts 202°
2026-04-30 05:01 27.69744 85.35833 4401 ft 9 kts 202°
2026-04-30 05:01 27.69681 85.35805 4401 ft 10 kts 202°
2026-04-30 05:01 27.69615 85.35774 4402 ft 11 kts 202°
2026-04-30 05:02 27.69538 85.35740 4401 ft 13 kts 201°
2026-04-30 05:02 27.69448 85.35698 4399 ft 15 kts 202°
2026-04-30 05:02 27.69341 85.35650 4398 ft 17 kts 202°
2026-04-30 05:02 27.69223 85.35595 4394 ft 20 kts 202°
2026-04-30 05:03 27.69094 85.35563 4392 ft 15 kts 155°
2026-04-30 05:03 27.69052 85.35613 4392 ft 6 kts 145°
2026-04-30 05:03 27.69015 85.35616 4391 ft 5 kts 192°
2026-04-30 05:03 27.68978 85.35603 4394 ft 6 kts 199°
2026-04-30 05:04 27.68934 85.35584 4395 ft 8 kts 201°
2026-04-30 05:04 27.68880 85.35559 4395 ft 9 kts 203°
2026-04-30 05:04 27.68812 85.35526 4392 ft 12 kts 202°
2026-04-30 05:04 27.68727 85.35490 4391 ft 14 kts 202°
2026-04-30 05:05 27.68640 85.35449 4396 ft 13 kts 202°
2026-04-30 05:05 27.68555 85.35410 4399 ft 14 kts 202°
2026-04-30 05:05 27.68471 85.35357 4400 ft 12 kts 232°
2026-04-30 05:06 27.68416 85.35353 4401 ft 3 kts 44°
2026-04-30 05:06 27.68451 85.35367 4400 ft 8 kts 20°
2026-04-30 05:06 27.68487 85.35382 4400 ft 0 kts 21°
2026-04-30 05:07 27.68625 85.35444 4396 ft 46 kts 22°
2026-04-30 05:07 27.69068 85.35647 4394 ft 90 kts 22°
2026-04-30 05:07 27.69771 85.35968 4400 ft 127 kts 22°
2026-04-30 05:07 27.70699 85.36402 4409 ft 160 kts 24°
2026-04-30 05:08 27.71727 85.36901 4751 ft 163 kts 24°
2026-04-30 05:08 27.72754 85.37496 5176 ft 170 kts 36°
2026-04-30 05:08 27.73647 85.38403 5601 ft 176 kts 51°
2026-04-30 05:08 27.74241 85.39640 6058 ft 186 kts 73°
2026-04-30 05:09 27.74342 85.41149 6352 ft 207 kts 91°
2026-04-30 05:09 27.74196 85.42851 6597 ft 230 kts 102°
2026-04-30 05:09 27.73649 85.44635 6814 ft 251 kts 121°
2026-04-30 05:09 27.72504 85.46151 7341 ft 256 kts 144°
2026-04-30 05:10 27.70916 85.47036 7984 ft 256 kts 167°
2026-04-30 05:10 27.69134 85.47150 8662 ft 258 kts 188°
2026-04-30 05:10 27.67411 85.46615 9351 ft 258 kts 205°
2026-04-30 05:10 27.65889 85.45535 10019 ft 260 kts 221°
2026-04-30 05:11 27.64702 85.43997 10583 ft 262 kts 238°
2026-04-30 05:11 27.63960 85.42115 11186 ft 264 kts 255°
2026-04-30 05:11 27.63744 85.40073 11902 ft 263 kts 271°
2026-04-30 05:11 27.64038 85.38062 12493 ft 267 kts 286°
2026-04-30 05:12 27.64712 85.36073 12914 ft 278 kts 291°
2026-04-30 05:12 27.65507 85.34020 13156 ft 294 kts 292°
2026-04-30 05:12 27.66352 85.31859 13411 ft 309 kts 292°
2026-04-30 05:12 27.67233 85.29582 13654 ft 324 kts 292°
2026-04-30 05:13 27.68152 85.27186 13887 ft 339 kts 292°
2026-04-30 05:13 27.69102 85.24694 14114 ft 353 kts 292°
2026-04-30 05:13 27.70091 85.22086 14309 ft 369 kts 292°
2026-04-30 05:13 27.71120 85.19366 14512 ft 384 kts 291°
2026-04-30 05:14 27.72185 85.16553 14795 ft 394 kts 292°
2026-04-30 05:14 27.72905 85.14651 15058 ft 398 kts 292°
2026-04-30 05:14 27.74347 85.10814 15689 ft 402 kts 290°
2026-04-30 05:14 27.75233 85.07822 16294 ft 402 kts 283°
2026-04-30 05:15 27.75710 85.04715 16832 ft 402 kts 274°
2026-04-30 05:15 27.75714 85.01567 17489 ft 400 kts 265°
2026-04-30 05:15 27.75517 84.99494 17851 ft 401 kts 262°
2026-04-30 05:15 27.74975 84.95311 18419 ft 405 kts 261°
2026-04-30 05:16 27.74692 84.93224 18665 ft 406 kts 261°
2026-04-30 05:16 27.74264 84.90059 19049 ft 409 kts 262°
2026-04-30 05:16 27.73836 84.86871 19434 ft 411 kts 262°
2026-04-30 05:16 27.73405 84.83664 19834 ft 414 kts 262°
2026-04-30 05:17 27.72975 84.80437 20177 ft 416 kts 262°
2026-04-30 05:17 27.72542 84.77185 20555 ft 419 kts 262°
2026-04-30 05:17 27.72108 84.73925 20895 ft 421 kts 262°
2026-04-30 05:17 27.71677 84.70686 21249 ft 423 kts 262°
2026-04-30 05:18 27.71235 84.67393 21598 ft 425 kts 262°
2026-04-30 05:18 27.70790 84.64081 21957 ft 427 kts 262°
2026-04-30 05:18 27.70343 84.60754 22344 ft 429 kts 262°
2026-04-30 05:18 27.69895 84.57419 22722 ft 432 kts 262°
2026-04-30 05:19 27.69442 84.54052 23098 ft 434 kts 262°
2026-04-30 05:19 27.68987 84.50677 23452 ft 436 kts 262°
2026-04-30 05:19 27.68558 84.47282 23768 ft 438 kts 264°
2026-04-30 05:19 27.68443 84.43833 24062 ft 440 kts 272°
2026-04-30 05:20 27.68838 84.40447 24345 ft 443 kts 282°
2026-04-30 05:20 27.69651 84.37081 24646 ft 446 kts 286°
2026-04-30 05:20 27.70609 84.33742 24929 ft 448 kts 288°
2026-04-30 05:20 27.71638 84.30416 25235 ft 450 kts 288°
2026-04-30 05:21 27.72696 84.27077 25571 ft 451 kts 289°
2026-04-30 05:21 27.73749 84.23747 25952 ft 451 kts 288°
2026-04-30 05:21 27.74796 84.20396 26219 ft 453 kts 288°
2026-04-30 05:21 27.75834 84.17025 26492 ft 456 kts 288°
2026-04-30 05:22 27.76871 84.13623 26761 ft 458 kts 288°
2026-04-30 05:22 27.77903 84.10216 27022 ft 460 kts 288°
2026-04-30 05:22 27.78942 84.06773 27288 ft 462 kts 288°
2026-04-30 05:22 27.79977 84.03323 27531 ft 465 kts 287°
2026-04-30 05:23 27.81018 83.99862 27800 ft 466 kts 288°
2026-04-30 05:23 27.82063 83.96392 28044 ft 468 kts 288°
2026-04-30 05:23 27.83115 83.92898 28334 ft 470 kts 288°
2026-04-30 05:23 27.84170 83.89390 28585 ft 472 kts 288°
2026-04-30 05:24 27.85227 83.85871 28865 ft 473 kts 288°
2026-04-30 05:24 27.86269 83.82399 29215 ft 472 kts 287°
2026-04-30 05:24 27.87336 83.78841 29544 ft 472 kts 287°
2026-04-30 05:24 27.88371 83.75383 29872 ft 472 kts 288°
2026-04-30 05:25 27.89424 83.71863 30164 ft 471 kts 287°
2026-04-30 05:25 27.90472 83.68356 30476 ft 470 kts 288°
2026-04-30 05:25 27.91517 83.64856 30788 ft 469 kts 288°
2026-04-30 05:25 27.92558 83.61367 31145 ft 467 kts 288°
2026-04-30 05:26 27.93594 83.57884 31399 ft 468 kts 287°
2026-04-30 05:26 27.94639 83.54377 31573 ft 471 kts 288°
2026-04-30 05:26 27.95752 83.50883 31905 ft 470 kts 289°
2026-04-30 05:26 27.96922 83.47430 32259 ft 469 kts 290°
2026-04-30 05:27 27.98098 83.44048 32526 ft 468 kts 290°
2026-04-30 05:27 27.99296 83.40628 32855 ft 467 kts 290°
2026-04-30 05:27 28.00494 83.37206 33174 ft 466 kts 290°
2026-04-30 05:27 28.01676 83.33807 33497 ft 465 kts 290°
2026-04-30 05:28 28.02856 83.30395 33782 ft 464 kts 289°
2026-04-30 05:28 28.03990 83.27099 34052 ft 463 kts 289°
2026-04-30 05:28 28.05154 83.23707 34378 ft 460 kts 290°
2026-04-30 05:28 28.06306 83.20342 34681 ft 457 kts 290°
2026-04-30 05:29 28.07453 83.16983 34979 ft 455 kts 290°
2026-04-30 05:29 28.08595 83.13636 35274 ft 452 kts 290°
2026-04-30 05:29 28.09707 83.10377 35594 ft 449 kts 290°
2026-04-30 05:29 28.10845 83.07037 35841 ft 448 kts 290°
2026-04-30 05:30 28.11963 83.03752 36066 ft 447 kts 290°
2026-04-30 05:30 28.13065 83.00511 36268 ft 446 kts 290°
2026-04-30 05:30 28.14179 82.97233 36489 ft 445 kts 290°
2026-04-30 05:30 28.15290 82.93960 36726 ft 444 kts 290°
2026-04-30 05:31 28.16034 82.91769 36870 ft 444 kts 290°
2026-04-30 05:31 28.17737 82.86749 36921 ft 449 kts 290°
2026-04-30 05:31 28.19996 82.80080 36915 ft 457 kts 290°
2026-04-30 05:32 28.21897 82.74451 36911 ft 460 kts 290°
2026-04-30 05:32 28.24552 82.66568 36918 ft 460 kts 290°
2026-04-30 05:33 28.26452 82.60933 36924 ft 460 kts 290°
2026-04-30 05:33 28.28739 82.54150 36904 ft 461 kts 290°
2026-04-30 05:34 28.31024 82.47352 36901 ft 459 kts 290°
2026-04-30 05:34 28.33659 82.39457 36902 ft 460 kts 290°
2026-04-30 05:35 28.35279 82.33705 36896 ft 457 kts 277°
2026-04-30 05:35 28.35241 82.30132 36897 ft 461 kts 262°
2026-04-30 05:35 28.34320 82.26619 36899 ft 467 kts 252°
2026-04-30 05:36 28.32908 82.19540 36905 ft 459 kts 271°
2026-04-30 05:36 28.33790 82.12419 36897 ft 457 kts 287°
2026-04-30 05:37 28.36408 82.05847 36879 ft 457 kts 299°
2026-04-30 05:37 28.39654 81.99688 36888 ft 457 kts 300°
2026-04-30 05:38 28.42962 81.93508 36901 ft 458 kts 300°
2026-04-30 05:38 28.46266 81.87301 36885 ft 459 kts 300°
2026-04-30 05:39 28.49559 81.81073 36880 ft 458 kts 300°
2026-04-30 05:39 28.52833 81.74846 36870 ft 459 kts 300°
2026-04-30 05:40 28.55916 81.68551 36887 ft 458 kts 291°
2026-04-30 05:40 28.56812 81.65079 36873 ft 457 kts 280°
2026-04-30 05:40 28.57013 81.61473 36877 ft 460 kts 268°
2026-04-30 05:41 28.56445 81.57881 36876 ft 466 kts 255°
2026-04-30 05:41 28.55084 81.54505 36879 ft 474 kts 241°
2026-04-30 05:41 28.52973 81.51586 36940 ft 483 kts 227°
2026-04-30 05:41 28.50216 81.49341 37033 ft 494 kts 212°
2026-04-30 05:42 28.46963 81.47945 37169 ft 507 kts 197°
2026-04-30 05:42 28.43425 81.47532 37259 ft 518 kts 182°
2026-04-30 05:42 28.39826 81.48149 37349 ft 529 kts 167°
2026-04-30 05:42 28.36433 81.49744 37298 ft 540 kts 153°
2026-04-30 05:43 28.33358 81.52250 36967 ft 549 kts 139°
2026-04-30 05:43 28.30868 81.55547 36628 ft 550 kts 123°
2026-04-30 05:43 28.29155 81.59408 36383 ft 550 kts 108°
2026-04-30 05:43 28.28297 81.63623 36129 ft 546 kts 93°
2026-04-30 05:44 28.28268 81.67904 35906 ft 541 kts 84°
2026-04-30 05:44 28.28563 81.72156 35675 ft 540 kts 84°
2026-04-30 05:44 28.28804 81.76404 35436 ft 539 kts 86°
2026-04-30 05:44 28.28855 81.80651 35217 ft 538 kts 90°
2026-04-30 05:45 28.28712 81.84883 34989 ft 538 kts 93°
2026-04-30 05:45 28.28423 81.89120 34762 ft 537 kts 95°
2026-04-30 05:45 28.28045 81.93326 34534 ft 535 kts 96°
2026-04-30 05:45 28.27626 81.97510 34481 ft 532 kts 96°
2026-04-30 05:46 28.27196 82.01665 34330 ft 529 kts 96°
2026-04-30 05:46 28.26766 82.05810 33915 ft 530 kts 97°
2026-04-30 05:46 28.26338 82.09920 33420 ft 530 kts 99°
2026-04-30 05:46 28.25423 82.13950 32910 ft 530 kts 113°
2026-04-30 05:47 28.23712 82.17642 32405 ft 527 kts 126°
2026-04-30 05:47 28.21585 82.21029 31894 ft 527 kts 128°
2026-04-30 05:47 28.19433 82.24395 31418 ft 527 kts 128°
2026-04-30 05:47 28.17255 82.27770 30930 ft 528 kts 129°
2026-04-30 05:48 28.15079 82.31125 30454 ft 529 kts 129°
2026-04-30 05:48 28.12922 82.34445 29998 ft 529 kts 129°
2026-04-30 05:48 28.10739 82.37797 29464 ft 530 kts 129°
2026-04-30 05:48 28.08546 82.41160 28923 ft 531 kts 129°
2026-04-30 05:49 28.06362 82.44508 28662 ft 526 kts 129°
2026-04-30 05:49 28.04199 82.47827 28536 ft 520 kts 129°
2026-04-30 05:49 28.02067 82.51100 28374 ft 514 kts 129°
2026-04-30 05:49 27.99955 82.54346 28255 ft 510 kts 129°
2026-04-30 05:50 27.97856 82.57571 28112 ft 506 kts 129°
2026-04-30 05:50 27.95776 82.60772 27940 ft 502 kts 129°
2026-04-30 05:50 27.93712 82.63950 27792 ft 499 kts 129°
2026-04-30 05:50 27.91665 82.67104 27658 ft 496 kts 129°
2026-04-30 05:51 27.89626 82.70246 27513 ft 493 kts 129°
2026-04-30 05:51 27.87603 82.73362 27354 ft 491 kts 129°
2026-04-30 05:51 27.85628 82.76454 27186 ft 491 kts 127°
2026-04-30 05:51 27.83783 82.79722 26779 ft 496 kts 123°
2026-04-30 05:52 27.81999 82.83079 26294 ft 502 kts 122°
2026-04-30 05:52 27.80211 82.86498 25829 ft 507 kts 122°
2026-04-30 05:52 27.78413 82.89950 25347 ft 512 kts 122°
2026-04-30 05:52 27.76602 82.93431 24861 ft 515 kts 122°
2026-04-30 05:53 27.74780 82.96932 24406 ft 518 kts 122°
2026-04-30 05:53 27.72942 83.00462 23961 ft 526 kts 122°
2026-04-30 05:53 27.71061 83.04069 23784 ft 535 kts 122°
2026-04-30 05:53 27.69200 83.07637 24703 ft 517 kts 122°
2026-04-30 05:54 27.67406 83.11082 25719 ft 503 kts 122°
2026-04-30 05:54 27.65638 83.14469 26109 ft 503 kts 122°
2026-04-30 05:54 27.63833 83.17888 26304 ft 508 kts 124°
2026-04-30 05:54 27.61750 83.21090 26574 ft 507 kts 134°
2026-04-30 05:55 27.59187 83.23791 26770 ft 506 kts 146°
2026-04-30 05:55 27.56221 83.25831 26924 ft 505 kts 158°
2026-04-30 05:55 27.52955 83.27227 27219 ft 500 kts 168°
2026-04-30 05:55 27.49583 83.27954 27096 ft 487 kts 180°
2026-04-30 05:56 27.46254 83.27774 26598 ft 471 kts 196°
2026-04-30 05:56 27.43226 83.26592 26367 ft 451 kts 212°
2026-04-30 05:56 27.40742 83.24581 26141 ft 432 kts 228°
2026-04-30 05:56 27.38977 83.21941 25935 ft 415 kts 245°
2026-04-30 05:57 27.38070 83.18932 25737 ft 401 kts 263°
2026-04-30 05:57 27.38060 83.15847 25545 ft 391 kts 278°
2026-04-30 05:57 27.38716 83.12953 25369 ft 383 kts 289°
2026-04-30 05:57 27.39880 83.10286 25192 ft 377 kts 300°
2026-04-30 05:58 27.41445 83.07951 25040 ft 371 kts 309°
2026-04-30 05:58 27.43347 83.05996 24884 ft 367 kts 319°
2026-04-30 05:58 27.45472 83.04430 24617 ft 364 kts 323°
2026-04-30 05:58 27.47468 83.02721 24284 ft 358 kts 316°
2026-04-30 05:59 27.49314 83.00856 23953 ft 354 kts 313°
2026-04-30 05:59 27.51056 82.98913 23625 ft 351 kts 311°
2026-04-30 05:59 27.52730 82.96914 23179 ft 351 kts 309°
2026-04-30 05:59 27.54341 82.94838 22664 ft 351 kts 307°
2026-04-30 06:00 27.55871 82.92731 22153 ft 352 kts 306°
2026-04-30 06:00 27.57375 82.90559 21657 ft 353 kts 305°
2026-04-30 06:00 27.58866 82.88361 21157 ft 353 kts 306°
2026-04-30 06:00 27.60557 82.86334 20674 ft 357 kts 319°
2026-04-30 06:01 27.62673 82.84855 20180 ft 362 kts 334°
2026-04-30 06:01 27.65105 82.84079 19732 ft 367 kts 349°
2026-04-30 06:01 27.67672 82.84080 19265 ft 373 kts
2026-04-30 06:01 27.70188 82.84888 18795 ft 378 kts 21°
2026-04-30 06:02 27.72399 82.86456 18360 ft 383 kts 39°
2026-04-30 06:02 27.74124 82.88765 17870 ft 387 kts 58°
2026-04-30 06:02 27.75089 82.91604 17363 ft 391 kts 78°
2026-04-30 06:02 27.75150 82.94657 16853 ft 391 kts 99°
2026-04-30 06:03 27.74309 82.97558 16358 ft 390 kts 117°
2026-04-30 06:03 27.73002 83.00233 15866 ft 388 kts 121°
2026-04-30 06:03 27.71622 83.02859 15390 ft 387 kts 121°
2026-04-30 06:03 27.70255 83.05464 14928 ft 386 kts 121°
2026-04-30 06:04 27.68914 83.08044 14451 ft 385 kts 121°
2026-04-30 06:04 27.67566 83.10653 13992 ft 383 kts 121°
2026-04-30 06:04 27.66233 83.13245 13488 ft 382 kts 121°
2026-04-30 06:05 27.63729 83.18491 12515 ft 378 kts 110°
2026-04-30 06:05 27.63106 83.21330 12186 ft 370 kts 97°
2026-04-30 06:05 27.62925 83.24214 11756 ft 366 kts 91°
2026-04-30 06:05 27.62877 83.27058 11489 ft 358 kts 90°
2026-04-30 06:06 27.62857 83.29829 11330 ft 347 kts 90°
2026-04-30 06:06 27.62843 83.32502 11164 ft 332 kts 90°
2026-04-30 06:06 27.62831 83.35026 11014 ft 313 kts 90°
2026-04-30 06:06 27.62820 83.37376 10840 ft 296 kts 90°
2026-04-30 06:07 27.62760 83.39655 10527 ft 286 kts 92°
2026-04-30 06:07 27.62661 83.41878 10241 ft 283 kts 93°
2026-04-30 06:07 27.62555 83.44090 10096 ft 281 kts 93°
2026-04-30 06:07 27.62448 83.46285 9887 ft 280 kts 93°
2026-04-30 06:08 27.62342 83.48474 9726 ft 279 kts 93°
2026-04-30 06:08 27.62235 83.50654 9444 ft 278 kts 92°
2026-04-30 06:08 27.62129 83.52828 9184 ft 278 kts 93°
2026-04-30 06:08 27.62023 83.55001 9006 ft 277 kts 94°
2026-04-30 06:09 27.61917 83.57164 8766 ft 276 kts 94°
2026-04-30 06:09 27.61811 83.59316 8511 ft 274 kts 94°
2026-04-30 06:09 27.61706 83.61456 8268 ft 272 kts 94°
2026-04-30 06:09 27.61600 83.63583 8034 ft 270 kts 94°
2026-04-30 06:10 27.61498 83.65656 7797 ft 268 kts 94°
2026-04-30 06:10 27.61394 83.67745 7550 ft 266 kts 95°
2026-04-30 06:10 27.61220 83.69815 7304 ft 262 kts 103°
2026-04-30 06:10 27.60566 83.71691 7071 ft 255 kts 126°
2026-04-30 06:11 27.59343 83.73082 6830 ft 249 kts 148°
2026-04-30 06:11 27.57786 83.73882 6594 ft 245 kts 161°
2026-04-30 06:11 27.56165 83.74459 6355 ft 243 kts 163°
2026-04-30 06:11 27.54553 83.74998 6116 ft 241 kts 163°
2026-04-30 06:12 27.52970 83.75532 5864 ft 240 kts 162°
2026-04-30 06:12 27.51371 83.76078 5621 ft 240 kts 162°
2026-04-30 06:12 27.49766 83.76615 5383 ft 240 kts 166°
2026-04-30 06:12 27.48119 83.76493 5128 ft 243 kts 201°
2026-04-30 06:13 27.46862 83.75251 4862 ft 248 kts 238°
2026-04-30 06:13 27.46514 83.73358 4631 ft 252 kts 278°
2026-04-30 06:13 27.46957 83.71441 4542 ft 255 kts 287°
2026-04-30 06:13 27.47413 83.69519 4531 ft 259 kts 282°
2026-04-30 06:14 27.47742 83.67513 4446 ft 261 kts 278°
2026-04-30 06:14 27.47964 83.65497 4257 ft 258 kts 275°
2026-04-30 06:14 27.48122 83.63477 3950 ft 259 kts 274°
2026-04-30 06:14 27.48251 83.61444 3584 ft 260 kts 274°
2026-04-30 06:15 27.48378 83.59438 3207 ft 254 kts 275°
2026-04-30 06:15 27.48511 83.57457 2828 ft 253 kts 275°
2026-04-30 06:15 27.48666 83.55498 2441 ft 249 kts 275°
2026-04-30 06:15 27.48843 83.53581 2086 ft 239 kts 277°
2026-04-30 06:16 27.49034 83.51779 1758 ft 224 kts 278°
2026-04-30 06:16 27.49234 83.50107 1538 ft 204 kts 277°
2026-04-30 06:16 27.49445 83.48626 1506 ft 177 kts 280°
2026-04-30 06:16 27.49657 83.47341 1477 ft 165 kts 282°
2026-04-30 06:17 27.49891 83.46072 1251 ft 167 kts 283°
2026-04-30 06:17 27.50129 83.44796 933 ft 166 kts 281°
2026-04-30 06:17 27.50316 83.43497 649 ft 169 kts 279°
2026-04-30 06:17 27.50495 83.42197 361 ft 164 kts 278°
2026-04-30 06:18 27.50640 83.41138 354 ft 85 kts 278°
2026-04-30 06:18 27.50666 83.40936 357 ft 0 kts 278°